Voltar ao catálogo

STARLINK-37450

AtivoComunicaçõesSSO
NORAD 68818·PAYLOAD·🇺🇸 United States

Lançado Apr 23, 2026 de Vandenberg Space Force Base

Loading…

Próximas Passagens (próximas 24 horas)

TLE

AtualizadoSource: CelesTrak SupGP

Época: Sep 14, 2026, 22:31 UTC

1 68818C 26089S   26257.93868056  .00088976  00000+0  27629-2 0  2575
2 68818  97.2852 103.8009 0001753  92.8243  68.4187 15.33383098    19

Acompanhe STARLINK-37450 em tempo real com AllMySat

Download on the App Store